Thursday, April 24, 2014
03:55 UTC
  |  Log In   |  Register Free
Airport Search:

Independence Municipal Airport
(KIDP)

FAA data valid effective April 3, 2014 until May 29, 2014 (unless otherwise noted).

 
 
 
 
 
 
 
 
 
 
 
 
 
 

Current Aviation Weather for Independence Municipal Airport (KIDP)

The most recent METAR observation for KIDP was updated at: 0255 UTC
METAR Summary (Translated METAR)
KIDP
240255Z AUTO 18017G20KT 10SM CLR 22/12 A2972 RMK AO2
KCFV
(10.6 nm SE from KIDP)
240252Z AUTO 16012KT 10SM CLR 22/13 A2974 RMK AO2 SLP066 T02220128 53006
TAF
No TAF information found within 50 nm of KIDP
  Airport Weather Conditions for KIDP

 Current Weather at IDP
73° F
Fair
South winds at 16.1 mph
IDP NOAA Radar

Pressure: 29.73 in
Humidity: 50%
Wind: South at 16.1 MPH (14 KT)
Dew Point: 53.6°F
Visibility: 10.00 mi


Airport Weather Forecast for KIDP

Translated METAR and TAF for KIDP
Translated METAR for KIDP (0355 UTC 24 April 2014)
found at http://aviationweather.gov/adds/metars/
 
METAR text: KIDP 240335Z AUTO 18017KT 10SM CLR 22/12 A2972 RMK AO2
Conditions at: KIDP (INDEPENDENCE , KS, US) observed 0335 UTC 24 April 2014
Temperature: 22.0°C (72°F)
Dewpoint: 12.0°C (54°F) [RH = 53%]
Pressure (altimeter): 29.72 inches Hg (1006.5 mb)
Winds: from the S (180 degrees) at 20 MPH (17 knots; 8.8 m/s)
Visibility: 10 or more miles (16+ km)
Ceiling: at least 12,000 feet AGL
Clouds: sky clear below 12,000 feet AGL
Weather: automated observation with no human augmentation;
there may or may not be significant weather present at this time
Translated TAF for KIDP

There is no translated TAF available for this airport

Find All Airport Services Find A Hotel Find A Rental Car Find A Golf Course Find A Restaurant $100 Hamburger



FBO's on the Field
FBO Company Facility Photos Services Transportation Aviation Fuel Prices: Prices include tax
Catering Weather Repair Courtesy Rental Type 100LL JetA JetA+ MOGAS 8087
 
City of Independence

This FBO has not yet been rated
FS:Phillips66
Last Updated: Mar-25
Login to update fuel prices
SS:
Contact City of IndependenceMore FBO Information
 
Add another FBO Facility Photos Catering Weather Repair Courtesy Rental Type 100LL JetA JetA+ MOGAS 8087
Services Transportation Aviation Fuel Prices: Prices include tax


GlobalAir.com Airport Resource Center model-print
model-print
model-print
model-print